Location: Marshall
(39.8477°N, 87.1868°W)
Time: 02:57:54
(UTC+00:00)

BlueWalker 3 - Pass Details

Date: 17 May 2026
Orbit: 447 x 456 km, 53.2° (Epoch: 9 June)

Event Time Altitude Azimuth Distance (km) Brightness Sun altitude
Rises 09:29:34 0° 318° (NW) 2,448 5.4 -11.0°
Reaches altitude 10° 09:32:25 10° 343° (NNW) 1,576 4.7 -10.6°
Maximum altitude 09:34:32 15° 20° (NNE) 1,306 4.9 -10.3°
Drops below altitude 10° 09:36:39 10° 56° (ENE) 1,576 6.1 -9.9°
Sets 09:39:30 0° 81° (E) 2,448 6.7 -9.5°
